Muncie, IN

1:25 AM EST on December 12, 2017 (GMT -0500)
Delaware County-Johnson

Weather History for KMIE - March, 2014

Change the Weather History Date:

Monday, March 17, 2014

  Actual Average Record
Temperature  
Mean Temperature 27 °F 40 °F  
Max Temperature 39 °F 49 °F 75 °F (1982)
Min Temperature 14 °F 31 °F 14 °F (2014)
Degree Days  
Heating Degree Days 38 25  
Month to date heating degree days 578 477  
Since 1 July heating degree days 5488 4860  
Cooling Degree Days 0 0  
Month to date cooling degree days 0 0  
Year to date cooling degree days 0 0  
Moisture  
Dew Point 17 °F    
Average Humidity 70    
Maximum Humidity 85    
Minimum Humidity 54    
Precipitation  
Precipitation 0.00 in 0.10 in 0.80 in (1973)
Month to date precipitation 1.08 1.50  
Year to date precipitation 4.04 6.04  
Sea Level Pressure  
Sea Level Pressure 29.94 in    
Wind  
Wind Speed 9 mph (East)    
Max Wind Speed 18 mph    
Max Gust Speed 24 mph    
Visibility 10 miles    
Events      
T = Trace of Precipitation, MM = Missing Value Source: NWS Daily Summary

Daily Weather History Graph

Daily Weather History Graph

Search for Another Location

Airport or City:

Trip Planner

Search our weather history database for the weather conditions in past years. The results will help you decide how hot, cold, wet, or windy it might be!

Date:

Astronomy

Mar. 17, 2014 Rise Set
Actual Time 7:49 AM EDT 7:50 PM EDT
Civil Twilight 7:22 AM EDT 8:17 PM EDT
Nautical Twilight 6:51 AM EDT 8:49 PM EDT
Astronomical Twilight 6:19 AM EDT 9:21 PM EDT
Moon 9:06 PM EDT (3/17) 8:04 AM EDT (3/17)
Length of Visible Light 12h 54m
Length of Day
12h 00m
Full, 99% of the Moon is Illuminated
Mar 17
Full
Mar 23
Last Quarter
Mar 30
New
Apr 7
First Quarter
Apr 15
Full

Hourly Weather History & Observations

Time (EDT) Temp. Windchill Dew Point Humidity Pressure Visibility Wind Dir Wind Speed Gust Speed Precip Events Conditions
12:53 AM 18.0 °F 3.1 °F 10.9 °F 74% 30.07 in 10.0 mi ENE 16.1 mph - N/A   Clear
1:53 AM 17.1 °F 3.0 °F 10.9 °F 77% 30.06 in 10.0 mi ENE 13.8 mph - N/A   Clear
2:53 AM 17.1 °F 3.0 °F 10.0 °F 74% 30.04 in 10.0 mi ENE 13.8 mph - N/A   Clear
3:53 AM 16.0 °F 1.7 °F 10.9 °F 81% 30.03 in 10.0 mi ENE 13.8 mph - N/A   Clear
4:53 AM 15.1 °F 1.8 °F 10.0 °F 80% 30.02 in 10.0 mi ENE 11.5 mph - N/A   Clear
5:53 AM 15.1 °F -0.1 °F 10.0 °F 80% 30.00 in 10.0 mi ENE 15.0 mph - N/A   Clear
6:53 AM 15.1 °F 3.3 °F 10.0 °F 80% 29.99 in 10.0 mi ENE 9.2 mph - N/A   Clear
7:17 AM 15.1 °F 2.5 °F 10.0 °F 80% 29.96 in 10.0 mi ENE 10.4 mph - N/A   Mostly Cloudy
7:53 AM 15.1 °F 1.8 °F 10.0 °F 80% 30.00 in 10.0 mi ENE 11.5 mph - N/A   Overcast
8:53 AM 16.0 °F 2.3 °F 10.9 °F 81% 29.99 in 10.0 mi ENE 12.7 mph - N/A   Overcast
9:53 AM 18.0 °F 4.8 °F 10.9 °F 74% 29.99 in 10.0 mi East 12.7 mph - N/A   Overcast
10:53 AM 21.9 °F 9.8 °F 12.9 °F 68% 29.98 in 10.0 mi East 12.7 mph - N/A   Overcast
11:53 AM 26.1 °F 15.6 °F 14.0 °F 60% 29.97 in 10.0 mi ESE 11.5 mph - N/A   Overcast
12:53 PM 28.9 °F 21.9 °F 16.0 °F 58% 29.95 in 10.0 mi ENE 6.9 mph - N/A   Overcast
1:53 PM 32.0 °F 25.6 °F 19.0 °F 59% 29.91 in 10.0 mi East 6.9 mph - N/A   Overcast
2:53 PM 34.0 °F 28.0 °F 21.0 °F 59% 29.90 in 10.0 mi ESE 6.9 mph - N/A   Overcast
3:53 PM 36.0 °F 30.3 °F 21.9 °F 57% 29.87 in 10.0 mi ESE 6.9 mph - N/A   Overcast
4:53 PM 37.0 °F 31.6 °F 23.0 °F 57% 29.86 in 10.0 mi East 6.9 mph - N/A   Overcast
5:44 PM 39.0 °F 34.0 °F 25.0 °F 57% 29.84 in 10.0 mi East 6.9 mph - N/A   Partly Cloudy
5:53 PM 39.0 °F 34.8 °F 25.0 °F 57% 29.87 in 10.0 mi East 5.8 mph - N/A   Partly Cloudy
6:53 PM 37.0 °F 31.0 °F 24.1 °F 59% 29.87 in 10.0 mi ESE 8.1 mph - N/A   Clear
7:51 PM 35.6 °F 30.7 °F 24.8 °F 65% 29.85 in 10.0 mi SE 5.8 mph - N/A   Mostly Cloudy
7:53 PM 36.0 °F 31.1 °F 25.0 °F 64% 29.88 in 10.0 mi SE 5.8 mph - N/A   Mostly Cloudy
8:53 PM 32.0 °F - 25.0 °F 75% 29.90 in 10.0 mi Calm Calm - N/A   Scattered Clouds
9:53 PM 30.0 °F 25.2 °F 25.0 °F 82% 29.90 in 10.0 mi ESE 4.6 mph - N/A   Clear
10:53 PM 30.0 °F 24.1 °F 25.0 °F 82% 29.90 in 10.0 mi SE 5.8 mph - N/A   Clear
11:53 PM 28.9 °F 23.9 °F 24.1 °F 82% 29.90 in 10.0 mi SE 4.6 mph - N/A   Clear